TimeCST,TemperatureF,Dew PointF,Humidity,Sea Level PressureIn,VisibilityMPH,Wind Direction,Wind SpeedMPH,Gust SpeedMPH,PrecipitationIn,Events,Conditions,WindDirDegrees,DateUTC
12:15 AM,26.6,17.6,69,30.26,10.0,NE,9.2,-,N/A,,Partly Cloudy,50,2013-02-21 06:15:00
12:35 AM,26.6,17.6,69,30.25,10.0,ENE,8.1,-,N/A,,Clear,70,2013-02-21 06:35:00
12:55 AM,26.6,17.6,69,30.26,10.0,ENE,9.2,-,N/A,,Clear,60,2013-02-21 06:55:00
1:15 AM,26.6,17.6,69,30.26,10.0,ENE,8.1,-,N/A,,Clear,70,2013-02-21 07:15:00
1:35 AM,26.6,17.6,69,30.27,10.0,East,6.9,-,N/A,,Clear,80,2013-02-21 07:35:00
1:55 AM,24.8,17.6,74,30.25,10.0,ENE,9.2,-,N/A,,Clear,70,2013-02-21 07:55:00
2:15 AM,24.8,17.6,74,30.26,10.0,ENE,5.8,-,N/A,,Clear,60,2013-02-21 08:15:00
2:35 AM,24.8,17.6,74,30.24,10.0,ENE,10.4,-,N/A,,Clear,60,2013-02-21 08:35:00
2:55 AM,26.6,17.6,69,30.25,10.0,ENE,6.9,-,N/A,,Clear,60,2013-02-21 08:55:00
3:15 AM,24.8,17.6,74,30.24,10.0,ENE,9.2,-,N/A,,Partly Cloudy,60,2013-02-21 09:15:00
3:35 AM,24.8,17.6,74,30.24,10.0,ENE,9.2,-,N/A,,Scattered Clouds,60,2013-02-21 09:35:00
3:55 AM,26.6,17.6,69,30.23,10.0,NE,11.5,-,N/A,,Mostly Cloudy,50,2013-02-21 09:55:00
4:15 AM,26.6,17.6,69,30.25,10.0,ENE,8.1,-,N/A,,Overcast,70,2013-02-21 10:15:00
4:35 AM,26.6,17.6,69,30.26,10.0,ENE,5.8,-,N/A,,Overcast,70,2013-02-21 10:35:00
4:55 AM,26.6,17.6,69,30.25,10.0,ENE,11.5,-,N/A,,Overcast,60,2013-02-21 10:55:00
5:15 AM,26.6,17.6,69,30.24,10.0,ENE,10.4,-,N/A,,Overcast,70,2013-02-21 11:15:00
5:35 AM,26.6,17.6,69,30.22,10.0,ENE,11.5,-,N/A,,Mostly Cloudy,70,2013-02-21 11:35:00
5:55 AM,26.6,17.6,69,30.21,10.0,East,12.7,-,N/A,,Mostly Cloudy,90,2013-02-21 11:55:00
6:15 AM,26.6,17.6,69,30.21,10.0,East,12.7,16.1,N/A,,Scattered Clouds,90,2013-02-21 12:15:00
6:35 AM,26.6,17.6,69,30.18,10.0,East,13.8,17.3,N/A,,Partly Cloudy,80,2013-02-21 12:35:00
6:55 AM,26.6,17.6,69,30.19,10.0,ENE,12.7,19.6,N/A,,Clear,60,2013-02-21 12:55:00
7:15 AM,26.6,17.6,69,30.19,10.0,East,10.4,-,N/A,,Clear,100,2013-02-21 13:15:00
7:35 AM,28.4,15.8,59,30.20,10.0,East,12.7,-,N/A,,Clear,90,2013-02-21 13:35:00
7:55 AM,28.4,17.6,64,30.19,10.0,East,12.7,18.4,N/A,,Clear,100,2013-02-21 13:55:00
8:15 AM,28.4,17.6,64,30.20,10.0,ESE,13.8,-,N/A,,Clear,110,2013-02-21 14:15:00
8:35 AM,30.2,17.6,60,30.18,10.0,East,15.0,-,N/A,,Clear,90,2013-02-21 14:35:00
8:55 AM,32.0,17.6,55,30.17,10.0,East,16.1,20.7,N/A,,Partly Cloudy,80,2013-02-21 14:55:00
9:15 AM,32.0,17.6,55,30.16,10.0,ESE,17.3,23.0,N/A,,Mostly Cloudy,110,2013-02-21 15:15:00
9:35 AM,32.0,17.6,55,30.15,10.0,East,16.1,19.6,N/A,,Mostly Cloudy,90,2013-02-21 15:35:00
9:55 AM,32.0,17.6,55,30.15,10.0,East,16.1,20.7,N/A,,Mostly Cloudy,100,2013-02-21 15:55:00
10:15 AM,33.8,17.6,52,30.13,10.0,East,12.7,23.0,N/A,,Mostly Cloudy,100,2013-02-21 16:15:00
10:35 AM,33.8,17.6,52,30.13,10.0,East,16.1,23.0,N/A,,Mostly Cloudy,100,2013-02-21 16:35:00
10:55 AM,33.8,19.4,56,30.11,10.0,East,8.1,21.9,N/A,,Partly Cloudy,100,2013-02-21 16:55:00
11:15 AM,33.8,19.4,56,30.08,10.0,East,13.8,20.7,N/A,,Scattered Clouds,80,2013-02-21 17:15:00
11:35 AM,35.6,19.4,52,30.04,10.0,East,18.4,23.0,N/A,,Overcast,80,2013-02-21 17:35:00
11:55 AM,35.6,17.6,48,30.04,10.0,East,12.7,23.0,N/A,,Overcast,90,2013-02-21 17:55:00
12:15 PM,35.6,17.6,48,30.02,10.0,East,12.7,23.0,N/A,,Overcast,80,2013-02-21 18:15:00
12:35 PM,35.6,19.4,52,29.97,10.0,East,19.6,23.0,N/A,,Overcast,80,2013-02-21 18:35:00
12:55 PM,35.6,19.4,52,29.97,10.0,East,12.7,24.2,N/A,,Scattered Clouds,100,2013-02-21 18:55:00
1:15 PM,35.6,21.2,56,29.97,10.0,East,15.0,25.3,N/A,,Scattered Clouds,100,2013-02-21 19:15:00
1:35 PM,35.6,23.0,60,29.97,10.0,ESE,11.5,-,N/A,,Mostly Cloudy,110,2013-02-21 19:35:00
1:55 PM,35.6,24.8,65,29.98,6.0,East,8.1,-,0.01,,Mostly Cloudy,100,2013-02-21 19:55:00
2:15 PM,33.8,26.6,75,29.99,5.0,East,8.1,-,0.02,,Mostly Cloudy,90,2013-02-21 20:15:00
2:35 PM,33.8,28.4,81,30.01,3.0,ENE,5.8,-,0.06,,Mostly Cloudy,70,2013-02-21 20:35:00
2:55 PM,32.0,28.4,87,29.98,3.0,ENE,11.5,-,0.11,,Mostly Cloudy,70,2013-02-21 20:55:00
3:15 PM,32.0,28.4,87,29.99,5.0,East,12.7,-,0.02,,Mostly Cloudy,80,2013-02-21 21:15:00
3:35 PM,32.0,28.4,87,29.97,2.5,ENE,15.0,-,0.08,,Mostly Cloudy,70,2013-02-21 21:35:00
3:55 PM,32.0,30.2,93,29.94,2.0,East,17.3,21.9,0.17,,Overcast,80,2013-02-21 21:55:00
4:15 PM,32.0,30.2,93,29.95,2.0,ENE,16.1,24.2,0.06,,Overcast,70,2013-02-21 22:15:00
4:35 PM,32.0,30.2,93,29.90,1.8,ENE,21.9,26.5,0.14,,Overcast,70,2013-02-21 22:35:00
4:55 PM,32.0,30.2,93,29.85,3.0,East,24.2,32.2,0.16,,Overcast,90,2013-02-21 22:55:00
5:15 PM,32.0,32.0,100,29.87,4.0,ENE,17.3,28.8,0.02,,Overcast,70,2013-02-21 23:15:00
5:35 PM,32.0,32.0,100,29.90,5.0,ENE,13.8,19.6,0.05,,Overcast,60,2013-02-21 23:35:00
5:55 PM,32.0,32.0,100,29.91,2.0,East,10.4,19.6,0.12,,Overcast,100,2013-02-21 23:55:00
6:15 PM,32.0,32.0,100,29.91,4.0,ESE,15.0,18.4,0.01,,Overcast,110,2013-02-22 00:15:00
6:35 PM,32.0,32.0,100,29.90,4.0,East,12.7,19.6,0.02,,Overcast,100,2013-02-22 00:35:00
6:55 PM,32.0,32.0,100,29.89,3.0,East,13.8,19.6,0.04,,Overcast,100,2013-02-22 00:55:00
7:15 PM,33.8,32.0,93,29.88,4.0,East,15.0,20.7,0.02,,Overcast,100,2013-02-22 01:15:00
7:35 PM,33.8,32.0,93,29.87,9.0,ESE,12.7,27.6,0.05,,Overcast,120,2013-02-22 01:35:00
7:55 PM,35.6,32.0,87,29.85,9.0,ESE,18.4,25.3,0.05,,Overcast,110,2013-02-22 01:55:00
8:15 PM,35.6,33.8,93,29.84,9.0,ESE,16.1,23.0,N/A,,Overcast,120,2013-02-22 02:15:00
8:35 PM,35.6,33.8,93,29.83,10.0,ESE,13.8,23.0,0.01,,Overcast,120,2013-02-22 02:35:00
8:55 PM,35.6,35.6,100,29.84,10.0,SE,10.4,18.4,0.01,,Overcast,130,2013-02-22 02:55:00
9:15 PM,37.4,35.6,93,29.87,7.0,East,5.8,-,N/A,,Overcast,100,2013-02-22 03:15:00
9:35 PM,37.4,35.6,93,29.87,3.0,East,8.1,-,0.03,,Overcast,90,2013-02-22 03:35:00
9:55 PM,37.4,35.6,93,29.86,8.0,East,6.9,-,0.04,,Overcast,90,2013-02-22 03:55:00
10:15 PM,37.4,35.6,93,29.85,5.0,ESE,6.9,-,N/A,,Overcast,120,2013-02-22 04:15:00
10:55 PM,37.4,35.6,93,29.85,8.0,SE,6.9,-,N/A,,Overcast,130,2013-02-22 04:55:00
11:15 PM,37.4,37.4,100,29.84,2.0,SE,4.6,-,N/A,,Overcast,130,2013-02-22 05:15:00
11:35 PM,37.4,37.4,100,29.83,2.5,SE,6.9,-,0.01,,Overcast,140,2013-02-22 05:35:00
11:55 PM,37.4,37.4,100,29.84,2.0,SSE,4.6,-,0.01,,Overcast,160,2013-02-22 05:55:00